Theta_e
330 334 351 355 355 354 353 352 351 351 351 351 352 352 352 352 352 352 350 348 346 344 344 343 342 341 341 342 344 345 347 349 347 347 347 347 349 349 349 348 348 346 349
331 336 349 353 355 355 354 353 353 352 352 351 352 352 352 352 351 351 348 346 344 343 343 342 340 339 339 339 341 344 346 346 345 345 344 345 347 347 346 348 348 347 350
332 340 347 351 354 355 354 354 353 352 352 351 351 352 352 351 350 349 346 344 343 342 341 340 338 337 336 336 338 340 341 340 339 342 342 337 339 345 345 344 344 344 345
334 342 346 348 353 355 354 354 353 353 352 351 350 350 350 350 349 347 344 342 340 340 339 337 335 333 332 333 334 335 336 335 336 337 337 337 337 341 341 341 342 341 341
335 341 344 347 352 354 354 353 352 352 352 351 350 349 348 347 347 346 343 340 339 337 336 335 332 329 328 328 330 332 333 339 338 335 335 334 336 340 340 340 339 339 340
334 339 343 348 352 352 352 353 352 352 352 351 350 349 349 346 345 343 342 339 337 336 334 332 329 326 323 323 325 329 333 338 335 332 333 337 334 341 340 339 338 336 338
331 336 339 346 350 351 352 352 352 352 351 351 351 349 347 345 342 341 340 338 335 335 332 330 326 323 321 320 322 325 331 332 327 328 330 331 333 340 338 337 337 336 335
330 334 337 339 343 346 349 350 350 350 350 350 349 348 347 344 342 339 336 336 334 334 330 328 325 322 319 318 320 322 328 327 323 321 323 326 337 337 336 335 335 334 333
329 332 334 338 340 338 342 344 346 347 347 346 347 346 344 342 341 338 336 335 335 331 329 327 323 321 318 316 317 321 322 323 315 316 320 321 334 335 334 332 332 331 331
324 328 330 333 341 340 339 336 338 341 342 343 341 338 335 335 335 334 331 333 332 331 329 326 322 320 318 314 312 314 315 315 309 311 312 315 329 330 330 328 328 328 327
316 320 326 329 338 340 341 335 333 335 336 336 335 331 329 330 330 327 326 330 334 333 328 326 322 320 316 309 310 309 305 301 302 304 307 319 324 326 325 323 324 325 325
306 313 320 328 335 337 338 339 337 334 334 334 334 332 329 327 327 327 323 326 330 329 329 326 322 318 305 292 290 299 293 295 298 298 301 316 319 321 321 320 321 322 324
296 302 307 321 334 335 335 336 337 337 335 330 331 331 329 328 324 324 323 323 323 319 316 317 311 307 301 295 293 291 292 292 292 294 297 310 315 318 319 320 320 322 324
295 296 298 303 323 333 334 335 335 335 334 333 330 330 329 325 324 322 321 320 319 317 315 310 307 304 301 296 293 293 292 291 291 292 294 304 308 312 318 320 320 322 324
294 295 297 299 307 327 332 333 332 333 332 331 330 327 326 325 323 321 320 319 317 315 314 311 307 303 301 296 293 292 291 291 291 291 292 301 306 309 313 319 320 322 325
293 294 297 300 306 319 326 328 329 330 330 330 328 328 326 325 322 321 319 318 316 315 313 311 308 302 300 294 293 292 291 291 290 290 291 293 303 308 311 317 321 322 326
292 294 296 301 311 316 319 320 324 326 326 326 325 325 325 324 323 320 318 316 316 313 311 308 305 302 297 294 292 291 291 291 290 290 290 290 294 302 308 314 318 323 326
291 292 295 298 305 316 316 317 320 321 322 322 324 324 324 324 322 319 317 316 315 312 309 306 305 302 299 294 292 291 290 289 290 290 290 290 291 294 301 309 314 320 325
290 291 293 295 298 311 315 314 311 309 310 309 309 312 317 319 319 319 317 314 312 310 308 306 303 301 299 296 293 292 290 289 289 290 289 290 290 293 295 303 309 310 314
289 291 292 295 295 300 306 303 302 302 301 301 300 302 304 306 311 313 312 310 309 308 306 304 301 297 295 294 293 292 290 289 289 288 288 290 290 290 291 295 298 300 307
288 289 290 291 292 296 296 297 297 295 297 296 296 295 296 298 302 304 305 305 305 303 302 300 297 296 297 292 293 294 289 289 288 288 287 288 288 289 291 294 296 297 298
286 287 288 289 290 292 293 293 293 292 293 293 294 292 292 293 294 296 298 299 299 300 299 298 297 295 294 292 291 289 288 288 286 286 286 287 287 288 290 292 294 296 296
284 284 286 287 288 289 291 291 291 290 289 288 287 287 287 288 288 290 291 292 294 295 295 296 295 294 293 293 291 291 289 286 283 286 285 285 286 286 288 289 291 293 294
282 283 285 286 286 287 287 287 285 284 282 283 284 285 285 285 285 286 286 287 288 289 288 290 292 291 291 291 291 290 288 288 286 285 286 288 285 286 286 287 289 290 292
282 281 282 284 284 284 284 284 283 282 282 281 282 282 283 283 284 284 284 285 285 286 285 286 287 287 289 289 289 289 288 287 287 285 285 284 286 288 286 286 287 288 289
281 281 281 282 283 283 283 282 282 281 280 281 281 281 281 282 282 283 284 283 284 284 284 285 285 286 285 286 286 287 286 287 287 287 286 288 286 287 286 287 286 287 288
Wind_Speed
5 6 9 10 15 15 12 11 10 9 10 11 11 11 11 11 11 12 12 12 11 9 9 10 9 9 9 9 10 9 10 12 12 12 13 13 14 14 14 12 10 6 10
6 8 9 9 12 12 12 11 10 10 10 10 11 10 10 11 13 13 12 11 9 9 9 9 9 9 9 9 9 8 9 10 11 10 10 10 10 12 12 10 10 10 13
6 9 9 11 10 12 12 11 11 10 11 11 12 11 10 10 10 12 10 10 10 9 8 9 9 10 10 9 8 7 7 8 7 8 8 5 5 10 12 13 14 15 13
6 7 7 10 12 13 13 11 11 10 10 11 11 10 10 9 10 9 8 9 10 8 7 8 8 9 9 9 8 7 6 6 5 4 4 4 4 9 10 11 12 14 14
7 6 6 10 11 12 14 13 11 10 10 10 11 10 10 8 6 8 8 8 8 8 7 7 7 8 9 8 7 6 6 6 6 5 4 3 4 7 9 10 11 12 12
6 6 8 11 11 12 15 14 12 11 11 11 9 10 11 10 9 8 7 5 5 5 5 5 6 7 7 7 6 6 6 7 7 5 4 3 4 8 9 9 10 10 9
5 5 6 10 10 11 13 15 12 11 10 10 10 10 12 12 8 7 5 3 3 3 2 3 5 6 7 7 5 5 6 8 5 5 5 4 3 8 7 6 8 8 7
6 5 5 8 9 9 11 13 12 11 10 10 11 12 14 13 10 7 4 1 2 3 2 3 5 6 7 7 6 6 6 7 5 5 5 4 3 6 6 5 6 6 6
4 5 5 6 7 8 9 10 11 11 9 9 11 11 12 14 11 8 5 2 2 2 2 2 4 6 7 8 8 7 7 7 5 4 4 3 7 4 4 4 4 4 4
2 3 4 4 8 5 5 8 8 8 8 8 7 5 8 9 10 8 6 3 1 2 2 2 3 4 6 7 7 7 7 7 4 3 3 3 5 3 3 3 2 2 3
4 3 3 3 8 7 4 4 6 8 8 7 5 7 7 5 6 7 5 4 2 2 2 2 2 4 7 7 8 7 6 3 3 2 2 6 5 2 2 2 1 1 1
7 6 5 4 6 6 5 4 4 4 3 4 4 5 4 4 4 5 7 4 1 3 1 2 1 8 6 3 3 6 3 3 2 2 2 6 5 3 3 3 2 2 2
7 6 7 6 7 6 5 3 2 2 2 2 5 5 5 4 3 3 2 2 2 3 2 3 4 3 3 3 3 3 4 3 2 2 4 7 6 5 5 4 3 3 2
9 8 9 8 6 9 4 3 3 3 2 2 3 5 4 3 4 3 3 3 2 1 1 1 1 1 2 2 3 4 3 3 2 2 4 8 8 7 8 7 6 5 4
10 11 11 9 6 7 8 4 4 3 3 2 2 2 3 4 4 4 4 4 3 3 3 3 1 1 2 3 3 3 4 5 4 3 3 8 9 9 9 10 8 8 6
12 13 12 10 6 5 6 7 3 2 2 3 2 3 3 3 4 3 3 3 4 4 3 3 3 1 2 2 3 3 3 4 4 5 4 5 10 10 10 11 11 10 8
10 11 13 12 9 4 6 5 3 3 2 1 2 3 4 4 4 4 3 3 3 3 4 3 2 2 1 2 4 4 4 4 4 4 4 4 5 9 10 11 11 13 12
10 12 11 10 11 8 7 5 5 6 6 6 6 5 5 4 2 2 2 2 1 1 2 1 2 1 2 1 3 4 4 4 5 5 4 4 4 3 6 10 10 11 13
10 11 12 13 13 11 13 11 12 13 10 9 10 10 12 10 7 4 3 3 3 2 2 0 1 1 1 2 3 4 4 4 5 4 6 6 6 5 3 8 10 11 12
11 11 12 11 12 11 10 11 11 11 11 11 11 11 14 11 13 9 8 8 6 4 5 3 4 3 2 3 3 4 4 5 5 5 6 4 5 5 5 5 4 5 11
12 14 14 13 13 8 6 5 8 8 8 11 11 15 14 14 14 12 8 8 7 7 6 5 3 4 3 3 3 4 3 5 5 5 3 4 5 4 5 4 4 3 4
10 11 12 12 12 10 5 4 5 5 7 8 9 12 13 14 13 12 10 9 9 7 8 7 5 3 3 3 2 2 5 6 3 3 3 4 5 3 5 5 5 6 5
11 11 10 10 11 11 9 4 4 5 5 6 9 9 12 13 14 13 12 10 10 8 7 6 5 4 2 3 2 1 4 3 5 3 3 3 3 3 5 5 6 6 5
8 7 8 10 11 11 9 12 15 9 9 4 4 5 8 11 12 12 11 11 10 7 9 8 7 4 3 2 2 2 2 1 3 6 3 5 4 5 5 4 5 6 6
7 7 7 9 12 12 12 10 10 11 7 4 5 8 9 9 11 11 10 9 9 7 7 9 8 8 5 4 4 3 1 1 2 3 8 4 4 4 4 4 5 5 6
5 7 6 10 11 10 11 11 12 12 8 8 8 7 6 4 6 9 9 8 7 8 8 7 6 7 5 4 3 4 3 3 3 3 4 10 8 5 4 5 5 5 5
Wind_Direction
237 203 191 172 149 151 154 148 135 122 118 116 115 118 119 119 121 109 93 85 85 76 72 63 59 59 56 59 69 74 63 80 71 64 58 59 61 63 63 59 56 54 60
158 172 182 177 155 153 159 153 145 138 134 126 117 120 122 118 111 101 92 87 79 74 66 62 58 53 53 49 56 65 72 76 69 63 60 50 56 63 59 49 55 58 62
143 163 170 169 164 163 161 156 152 149 145 139 131 121 121 122 113 104 101 93 82 74 64 61 55 47 43 41 44 46 65 65 67 67 71 65 62 68 58 41 40 41 40
150 159 165 173 174 174 165 160 157 156 151 144 137 132 123 116 112 109 103 97 87 65 56 51 47 46 38 36 35 36 30 40 51 91 67 62 49 68 62 56 48 37 33
152 158 167 175 178 169 161 158 162 163 159 156 153 146 136 120 126 119 121 105 96 78 51 43 39 38 33 23 28 34 23 40 52 111 98 68 66 73 75 71 57 47 39
155 159 167 177 186 179 162 160 166 170 172 161 170 167 154 118 99 99 102 99 93 88 52 36 36 29 26 15 21 33 38 59 78 90 85 82 73 95 85 81 72 56 45
166 164 169 182 189 184 168 164 173 175 174 175 178 156 138 132 132 130 125 132 105 67 8 31 33 30 27 27 30 38 62 68 69 63 59 49 24 89 77 68 75 61 49
173 176 178 190 193 194 183 170 174 183 187 188 181 171 148 145 149 156 149 208 225 107 318 29 35 30 26 29 36 36 62 74 63 56 53 21 37 85 67 52 59 55 44
190 184 190 188 199 193 186 174 176 187 200 204 202 191 158 152 157 157 162 126 193 244 301 48 36 26 26 31 35 43 65 73 71 52 31 4 6 51 47 39 39 35 34
237 235 219 196 201 199 200 183 179 187 197 211 211 187 123 135 150 154 157 153 148 179 280 80 52 30 30 27 33 47 61 60 56 47 21 330 12 35 43 28 15 13 6
0 318 297 262 225 220 197 196 196 197 195 189 184 157 140 150 161 158 163 183 200 148 210 129 62 38 46 21 26 31 44 38 43 19 351 342 354 3 11 336 294 314 327
332 312 264 228 222 225 216 195 195 205 201 184 164 164 152 169 175 163 161 180 246 124 183 162 109 83 52 24 359 16 25 18 22 354 333 337 340 323 300 298 295 263 223
311 320 320 261 226 208 201 175 171 195 174 210 194 183 179 156 151 122 108 124 92 52 28 49 58 60 52 39 8 357 352 5 351 336 329 334 326 315 293 282 278 259 214
339 326 322 322 235 217 189 181 164 163 166 187 239 178 147 141 146 151 154 149 141 112 108 72 53 74 38 12 359 340 343 340 326 314 308 324 323 310 301 286 279 263 243
350 334 328 314 274 218 201 175 161 164 168 172 175 184 156 151 163 154 173 165 162 164 165 175 200 287 329 338 346 346 332 327 323 316 313 316 321 313 301 294 280 269 251
344 341 330 327 293 192 192 192 155 164 159 156 154 244 219 147 148 174 180 189 185 177 166 162 170 215 289 331 315 318 307 309 312 312 312 319 319 317 305 300 295 278 252
343 336 349 346 348 120 110 106 104 87 61 347 315 253 222 214 182 173 170 200 236 170 158 153 138 128 299 324 299 311 314 304 298 295 299 297 307 309 307 301 296 286 271
350 357 351 4 18 51 81 81 70 50 48 37 31 16 357 353 27 130 170 245 12 75 132 162 135 191 251 270 297 299 298 295 288 282 282 277 274 286 296 296 297 300 299
352 359 14 18 23 42 66 69 63 55 50 44 41 30 20 23 20 20 12 11 64 122 116 128 88 48 342 315 288 288 283 277 272 273 262 266 268 265 271 288 300 307 306
6 12 19 29 30 42 60 63 59 54 47 43 37 35 31 33 34 38 39 34 28 19 28 19 15 34 347 338 314 292 276 265 259 253 259 268 262 270 281 286 295 304 309
24 30 27 32 17 29 44 67 60 61 47 48 41 35 36 31 32 39 48 43 41 48 41 27 33 9 354 8 325 330 311 275 284 296 302 287 293 309 300 299 294 293 302
25 33 29 34 35 36 41 47 68 79 57 61 47 41 35 34 34 42 38 37 36 44 46 41 35 354 353 22 16 253 339 330 352 356 334 291 289 308 290 277 277 281 284
29 21 28 33 44 44 51 72 76 70 54 45 34 39 31 34 33 34 36 38 33 33 35 27 21 43 15 360 39 315 330 313 320 342 337 347 325 283 277 293 296 285 278
19 17 23 35 45 45 40 70 78 83 82 45 62 49 47 42 41 38 35 34 38 36 34 19 15 14 8 16 350 109 192 228 308 318 340 323 341 308 307 294 279 275 269
24 31 10 49 50 44 53 64 77 76 74 58 48 53 35 32 36 32 33 37 36 34 28 29 27 32 18 1 359 343 333 224 243 269 303 320 309 291 280 265 271 272 260
33 42 33 62 53 53 64 65 75 83 80 71 53 53 35 24 33 31 31 35 37 31 19 11 18 37 28 36 6 358 340 332 326 309 289 302 288 281 268 278 271 267 261